Location: Ravensburg
(48.5621°N, 13.4088°E)
Time: 17:57:29
(UTC+02:00)

ELECTRON R/B - Visible Passes

Search period start: 20 May 2018 00:00
Search period end: 30 May 2018 00:00
Orbit: 285 x 480 km, 82.9° (Epoch: 19 May)

Date Brightness Start Highest point End Pass type
(mag) Time Alt. Az. Time Alt. Az. Time Alt. Az.
20 May 6.1 22:26:45 10° NNW 22:28:57 28° W 22:30:40 13° SSW visible
21 May 5.2 21:30:20 10° N 21:32:38 34° ENE 21:34:53 10° SSE visible
22 May 5.9 22:06:47 10° NNW 22:09:02 33° W 22:11:17 10° SSW visible
24 May 5.6 21:46:31 10° NNW 21:48:50 39° W 21:51:10 10° SSW visible
27 May 7.7 22:03:31 10° WNW 22:04:11 11° W 22:04:51 10° WSW visible
29 May 7.6 21:42:02 10° WNW 21:43:17 13° W 21:44:33 10° WSW visible
